User: anonymous   Login
Location: Unspecified
(0.0000°N, 0.0000°E)
Time: 19:48:02
(UTC+00:00)
Language:

Orbcomm A3 (FM07) - Orbit

View from above orbital plane
View from above orbital plane
View from above satellite
View from above satellite

Ground track
Ground track

The orbit data is extracted from the following two-line orbital elements,

1 25119U 97084H   17269.56364186  .00000133  00000-0  89340-4 0  9995
2 25119  45.0157 107.3381 0004543  75.4884 284.6468 14.38602759 34917
Epoch (UTC): 26 September 2017 13:31:38
Eccentricity: 0.0004543
inclination: 45.0157°
perigee height: 760 km
apogee height: 766 km
right ascension of ascending node: 107.3381°
argument of perigee: 75.4884°
revolutions per day: 14.38602759
mean anomaly at epoch: 284.6468°
orbit number at epoch: 3491

The dashed part of the orbit path shows where the satellite is in the earth's shadow,  

DLR